Change the Weather History Date:

Monday, February 11, 2013

  Actual Average Record
Temperature  
Mean Temperature 44 °F 28 °F  
Max Temperature 53 °F 35 °F 72 °F (1932)
Min Temperature 34 °F 21 °F -17 °F (1979)
Degree Days  
Heating Degree Days 21 37  
Month to date heating degree days 444 416  
Since 1 July heating degree days 3484 3754  
Cooling Degree Days 0 0  
Month to date cooling degree days 0 0  
Year to date cooling degree days 0 0  
Moisture  
Dew Point 31 °F    
Average Humidity 64    
Maximum Humidity 85    
Minimum Humidity 43    
Precipitation  
Precipitation T in 0.08 in 0.51 in (2009)
Month to date precipitation 1.22 0.91  
Year to date precipitation 4.54 3.86  
Snow  
Snow T in 0.70 in - ()
Month to date snowfall 17.9 7.8  
Since 1 July snowfall 70.4 73.6  
Snow Depth 0.00 in    
Sea Level Pressure  
Sea Level Pressure 29.75 in    
Wind  
Wind Speed 19 mph (SW)    
Max Wind Speed 36 mph    
Max Gust Speed 45 mph    
Visibility 10 miles    
Events Snow    
T = Trace of Precipitation, MM = Missing Value Source: NWS Daily Summary

Daily Weather History Graph

Daily Weather History Graph

Search for Another Location

Airport or City:

Trip Planner

Search our weather history database for the weather conditions in past years. The results will help you decide how hot, cold, wet, or windy it might be!

Date:

Astronomy

Feb. 11, 2013 Rise Set
Actual Time 7:21 AM EST 5:48 PM EST
Civil Twilight 6:52 AM EST 6:17 PM EST
Nautical Twilight 6:19 AM EST 6:50 PM EST
Astronomical Twilight 5:47 AM EST 7:23 PM EST
Moon 7:42 AM EST (2/11) 7:46 PM EST (2/11)
Length of Visible Light 11h 24m
Length of Day
10h 27m
Waxing Crescent, 3% of the Moon is Illuminated
Feb 11
Waxing Crescent
Feb 17
First Quarter
Feb 25
Full
Mar 4
Last Quarter
Mar 11
New

Hourly Weather History & Observations

Time (EST) Temp. Windchill Dew Point Humidity Pressure Visibility Wind Dir Wind Speed Gust Speed Precip Events Conditions
12:51 AM 43.0 °F 33.8 °F 21.9 °F 43% 29.83 in 10.0 mi South 23.0 mph 34.5 mph 0.00 in   Overcast
1:51 AM 39.9 °F 30.5 °F 30.0 °F 68% 29.79 in 10.0 mi South 19.6 mph 34.5 mph N/A   Overcast
2:51 AM 39.0 °F 27.8 °F 33.1 °F 79% 29.79 in 10.0 mi South 26.5 mph 33.4 mph N/A   Overcast
3:51 AM 39.0 °F 29.0 °F 35.1 °F 86% 29.75 in 10.0 mi South 20.7 mph 35.7 mph 0.00 in   Overcast
4:51 AM 41.0 °F 31.4 °F 35.1 °F 79% 29.74 in 10.0 mi South 21.9 mph 31.1 mph N/A   Overcast
5:03 AM 39.2 °F 29.3 °F 35.6 °F 87% 29.73 in 10.0 mi South 20.7 mph 29.9 mph N/A   Overcast
5:51 AM 41.0 °F 32.2 °F 36.0 °F 82% 29.74 in 10.0 mi South 18.4 mph 27.6 mph N/A   Overcast
6:13 AM 41.0 °F 32.8 °F 37.4 °F 87% 29.71 in 10.0 mi South 16.1 mph - N/A   Overcast
6:51 AM 42.1 °F 33.9 °F 37.9 °F 85% 29.72 in 10.0 mi South 17.3 mph - N/A   Overcast
7:21 AM 42.8 °F 34.8 °F 39.2 °F 87% 29.69 in 10.0 mi South 17.3 mph 25.3 mph N/A   Scattered Clouds
7:51 AM 44.1 °F 35.9 °F 39.9 °F 85% 29.70 in 10.0 mi South 19.6 mph - N/A   Scattered Clouds
8:51 AM 46.0 °F 39.3 °F 41.0 °F 83% 29.68 in 10.0 mi South 16.1 mph 25.3 mph N/A   Clear
9:51 AM 48.9 °F - 42.1 °F 77% 29.65 in 10.0 mi South 18.4 mph 27.6 mph N/A   Partly Cloudy
10:51 AM 52.0 °F - 41.0 °F 66% 29.62 in 10.0 mi SSW 18.4 mph 31.1 mph N/A   Clear
11:28 AM 42.8 °F 33.3 °F 33.8 °F 70% 29.66 in 10.0 mi West 24.2 mph 35.7 mph N/A   Overcast
11:51 AM 41.0 °F 32.8 °F 32.0 °F 70% 29.68 in 10.0 mi WSW 16.1 mph 28.8 mph N/A   Overcast
12:51 PM 39.0 °F 31.4 °F 30.0 °F 70% 29.68 in 10.0 mi WSW 12.7 mph 31.1 mph N/A   Overcast
1:51 PM 37.0 °F 26.7 °F 28.0 °F 70% 29.71 in 10.0 mi WSW 19.6 mph 29.9 mph N/A   Overcast
2:51 PM 36.0 °F 25.3 °F 28.0 °F 73% 29.73 in 10.0 mi WSW 19.6 mph 31.1 mph N/A   Overcast
3:51 PM 36.0 °F 25.6 °F 27.0 °F 70% 29.75 in 10.0 mi WSW 18.4 mph 33.4 mph N/A   Overcast
4:51 PM 35.1 °F 23.3 °F 26.1 °F 70% 29.78 in 10.0 mi West 23.0 mph 35.7 mph N/A   Overcast
5:51 PM 35.1 °F 23.8 °F 26.1 °F 70% 29.80 in 10.0 mi WSW 20.7 mph 29.9 mph N/A   Overcast
6:51 PM 37.0 °F 28.5 °F 23.0 °F 57% 29.82 in 10.0 mi WSW 13.8 mph 28.8 mph N/A   Overcast
7:51 PM 36.0 °F 26.7 °F 23.0 °F 59% 29.83 in 10.0 mi WSW 15.0 mph 31.1 mph N/A   Overcast
8:51 PM 35.1 °F 23.5 °F 26.1 °F 70% 29.83 in 10.0 mi WSW 21.9 mph 31.1 mph N/A   Overcast
9:51 PM 35.1 °F 23.8 °F 24.1 °F 64% 29.84 in 10.0 mi WSW 20.7 mph 36.8 mph N/A   Overcast
10:10 PM 35.6 °F 25.9 °F 24.8 °F 65% 29.82 in 10.0 mi WSW 16.1 mph 32.2 mph 0.00 in Snow Light Snow
10:51 PM 34.0 °F 23.0 °F 25.0 °F 70% 29.84 in 4.0 mi WSW 18.4 mph 35.7 mph 0.00 in Snow Light Snow
11:51 PM 34.0 °F 22.4 °F 23.0 °F 64% 29.85 in 10.0 mi WSW 20.7 mph 39.1 mph 0.00 in   Overcast